Location: Vlissingen
(51.4500°N, 3.5830°E)
Time: 11:38:56
(UTC+01:00)

N. Korean satellite - Pass Details

Date: 30 November 2021
Orbit: 447 x 491 km, 97.3° (Epoch: 20 January)

Event Time Altitude Azimuth Distance (km) Brightness Sun altitude
Rises 06:08:38 0° 14° (NNE) 2,487 10.2 -20.7°
Reaches altitude 10° 06:10:41 10° 15° (NNE) 1,602 9.2 -20.4°
Maximum altitude 06:14:07 81° 103° (ESE) 463 6.4 -19.9°
Drops below altitude 10° 06:17:30 10° 191° (S) 1,574 9.1 -19.4°
Sets 06:19:30 0° 192° (SSW) 2,438 10.1 -19.0°
